TimeMDT,TemperatureF,Dew PointF,Humidity,Sea Level PressureIn,VisibilityMPH,Wind Direction,Wind SpeedMPH,Gust SpeedMPH,PrecipitationIn,Events,Conditions,WindDirDegrees,DateUTC
12:14 AM,44.6,33.8,66,30.57,10.0,WSW,9.2,17.3,N/A,,Clear,250,2013-09-17 06:14:00
12:34 AM,44.6,33.8,66,30.57,10.0,West,15.0,-,N/A,,Clear,270,2013-09-17 06:34:00
12:54 AM,44.6,33.8,66,30.57,10.0,West,16.1,-,N/A,,Clear,260,2013-09-17 06:54:00
1:14 AM,44.6,33.8,66,30.56,10.0,West,16.1,-,N/A,,Clear,260,2013-09-17 07:14:00
1:34 AM,44.6,33.8,66,30.56,10.0,West,15.0,-,N/A,,Clear,260,2013-09-17 07:34:00
1:54 AM,44.6,33.8,66,30.56,10.0,West,13.8,-,N/A,,Clear,260,2013-09-17 07:54:00
2:14 AM,44.6,35.6,71,30.56,10.0,West,9.2,-,N/A,,Clear,260,2013-09-17 08:14:00
2:34 AM,44.6,33.8,66,30.55,10.0,West,6.9,-,N/A,,Clear,260,2013-09-17 08:34:00
2:54 AM,44.6,33.8,66,30.55,10.0,WSW,6.9,-,N/A,,Clear,250,2013-09-17 08:54:00
3:14 AM,44.6,33.8,66,30.54,10.0,WSW,6.9,-,N/A,,Clear,240,2013-09-17 09:14:00
3:34 AM,44.6,32.0,61,30.54,10.0,SW,8.1,-,N/A,,Clear,220,2013-09-17 09:34:00
3:54 AM,44.6,32.0,61,30.54,10.0,SW,5.8,-,N/A,,Clear,230,2013-09-17 09:54:00
4:14 AM,44.6,32.0,61,30.54,10.0,SSW,5.8,-,N/A,,Clear,210,2013-09-17 10:14:00
4:34 AM,44.6,32.0,61,30.53,10.0,SSW,8.1,-,N/A,,Clear,200,2013-09-17 10:34:00
4:54 AM,44.6,33.8,66,30.53,10.0,SSW,9.2,-,N/A,,Clear,200,2013-09-17 10:54:00
5:14 AM,44.6,32.0,61,30.53,10.0,SW,8.1,-,N/A,,Clear,220,2013-09-17 11:14:00
5:34 AM,44.6,32.0,61,30.54,10.0,SW,5.8,-,N/A,,Clear,230,2013-09-17 11:34:00
5:54 AM,44.6,32.0,61,30.53,10.0,SW,8.1,-,N/A,,Clear,220,2013-09-17 11:54:00
6:14 AM,44.6,32.0,61,30.53,10.0,SSW,8.1,-,N/A,,Clear,210,2013-09-17 12:14:00
6:34 AM,44.6,32.0,61,30.53,10.0,SW,8.1,-,N/A,,Clear,230,2013-09-17 12:34:00
6:54 AM,44.6,32.0,61,30.53,10.0,SW,6.9,-,N/A,,Clear,220,2013-09-17 12:54:00
7:14 AM,44.6,32.0,61,30.54,10.0,SW,6.9,-,N/A,,Clear,220,2013-09-17 13:14:00
7:34 AM,44.6,33.8,66,30.54,10.0,South,10.4,-,N/A,,Clear,190,2013-09-17 13:34:00
7:54 AM,46.4,33.8,62,30.54,10.0,South,6.9,-,N/A,,Clear,190,2013-09-17 13:54:00
8:14 AM,46.4,35.6,66,30.54,10.0,SSW,3.5,-,N/A,,Clear,210,2013-09-17 14:14:00
8:34 AM,48.2,35.6,62,30.54,10.0,SSW,8.1,-,N/A,,Clear,200,2013-09-17 14:34:00
8:54 AM,48.2,33.8,58,30.54,10.0,WSW,5.8,-,N/A,,Scattered Clouds,250,2013-09-17 14:54:00
9:14 AM,46.4,33.8,62,30.54,10.0,SW,3.5,-,N/A,,Scattered Clouds,230,2013-09-17 15:14:00
9:34 AM,48.2,33.8,58,30.54,10.0,South,8.1,-,N/A,,Scattered Clouds,190,2013-09-17 15:34:00
9:54 AM,51.8,33.8,50,30.54,10.0,SW,9.2,17.3,N/A,,Clear,220,2013-09-17 15:54:00
10:14 AM,51.8,32.0,47,30.54,10.0,WSW,9.2,-,N/A,,Clear,250,2013-09-17 16:14:00
10:34 AM,53.6,33.8,47,30.54,10.0,WSW,8.1,16.1,N/A,,Clear,240,2013-09-17 16:34:00
10:54 AM,53.6,33.8,47,30.54,10.0,SW,6.9,-,N/A,,Scattered Clouds,220,2013-09-17 16:54:00
11:14 AM,53.6,32.0,44,30.53,10.0,West,11.5,18.4,N/A,,Clear,260,2013-09-17 17:14:00
11:34 AM,51.8,32.0,47,30.52,10.0,WSW,10.4,-,N/A,,Scattered Clouds,240,2013-09-17 17:34:00
11:54 AM,53.6,30.2,41,30.51,10.0,West,16.1,24.2,N/A,,Scattered Clouds,260,2013-09-17 17:54:00
12:14 PM,53.6,30.2,41,30.51,10.0,West,20.7,-,N/A,,Scattered Clouds,260,2013-09-17 18:14:00
12:34 PM,53.6,28.4,38,30.50,10.0,West,12.7,19.6,N/A,,Scattered Clouds,260,2013-09-17 18:34:00
12:54 PM,53.6,28.4,38,30.49,10.0,SW,6.9,-,N/A,,Mostly Cloudy,230,2013-09-17 18:54:00
1:14 PM,53.6,28.4,38,30.49,10.0,SW,9.2,25.3,N/A,,Mostly Cloudy,220,2013-09-17 19:14:00
1:34 PM,55.4,30.2,38,30.48,10.0,West,17.3,23.0,N/A,,Mostly Cloudy,270,2013-09-17 19:34:00
1:54 PM,59.0,30.2,34,30.47,10.0,South,10.4,-,N/A,,Overcast,190,2013-09-17 19:54:00
2:14 PM,59.0,32.0,36,30.46,10.0,South,8.1,-,N/A,,Overcast,190,2013-09-17 20:14:00
2:34 PM,59.0,30.2,34,30.46,10.0,South,11.5,17.3,N/A,,Mostly Cloudy,190,2013-09-17 20:34:00
2:54 PM,59.0,32.0,36,30.45,10.0,SSE,9.2,-,N/A,,Overcast,160,2013-09-17 20:54:00
3:14 PM,59.0,32.0,36,30.45,10.0,WSW,4.6,-,N/A,,Overcast,250,2013-09-17 21:14:00
3:34 PM,59.0,32.0,36,30.44,10.0,West,5.8,17.3,N/A,,Mostly Cloudy,260,2013-09-17 21:34:00
3:54 PM,57.2,32.0,38,30.44,10.0,South,10.4,16.1,N/A,,Scattered Clouds,170,2013-09-17 21:54:00
4:14 PM,59.0,30.2,34,30.43,10.0,South,12.7,18.4,N/A,,Scattered Clouds,180,2013-09-17 22:14:00
4:34 PM,59.0,32.0,36,30.44,10.0,SW,6.9,-,N/A,,Mostly Cloudy,220,2013-09-17 22:34:00
4:54 PM,59.0,32.0,36,30.43,10.0,West,18.4,26.5,N/A,,Overcast,260,2013-09-17 22:54:00
5:14 PM,55.4,32.0,41,30.43,10.0,WSW,9.2,20.7,N/A,,Mostly Cloudy,250,2013-09-17 23:14:00
5:34 PM,59.0,33.8,39,30.43,10.0,West,8.1,-,N/A,,Scattered Clouds,260,2013-09-17 23:34:00
5:54 PM,53.6,32.0,44,30.42,10.0,West,10.4,-,N/A,,Mostly Cloudy,260,2013-09-17 23:54:00
6:14 PM,53.6,32.0,44,30.42,10.0,West,9.2,17.3,N/A,,Mostly Cloudy,260,2013-09-18 00:14:00
6:34 PM,53.6,33.8,47,30.41,10.0,WSW,6.9,16.1,N/A,,Scattered Clouds,240,2013-09-18 00:34:00
6:49 PM,53.6,33.8,47,30.41,10.0,West,13.8,19.6,N/A,,Mostly Cloudy,260,2013-09-18 00:49:00
8:14 PM,50.0,37.4,62,30.43,10.0,Calm,Calm,-,N/A,,Overcast,0,2013-09-18 02:14:00
8:34 PM,46.4,35.6,66,30.42,10.0,South,10.4,-,N/A,,Scattered Clouds,190,2013-09-18 02:34:00
8:54 PM,48.2,35.6,62,30.42,10.0,South,11.5,-,N/A,,Clear,180,2013-09-18 02:54:00
9:14 PM,48.2,35.6,62,30.42,10.0,South,13.8,-,N/A,,Clear,170,2013-09-18 03:14:00
9:34 PM,50.0,33.8,54,30.41,10.0,South,17.3,20.7,N/A,,Clear,180,2013-09-18 03:34:00
9:54 PM,50.0,33.8,54,30.41,10.0,South,16.1,19.6,N/A,,Clear,190,2013-09-18 03:54:00
10:14 PM,50.0,32.0,50,30.40,10.0,South,18.4,25.3,N/A,,Clear,170,2013-09-18 04:14:00
10:34 PM,51.8,32.0,47,30.40,10.0,South,16.1,25.3,N/A,,Clear,170,2013-09-18 04:34:00
10:54 PM,50.0,32.0,50,30.40,10.0,South,20.7,28.8,N/A,,Clear,180,2013-09-18 04:54:00
11:14 PM,51.8,32.0,47,30.39,10.0,South,19.6,27.6,N/A,,Clear,170,2013-09-18 05:14:00
11:34 PM,50.0,32.0,50,30.38,10.0,South,19.6,27.6,N/A,,Clear,170,2013-09-18 05:34:00
11:54 PM,50.0,32.0,50,30.39,10.0,South,11.5,23.0,N/A,,Clear,190,2013-09-18 05:54:00